Regional Weather Roundup
Issued by NWS Wakefield, VA

Home | Current Version | Previous Version | Graphics & Text | Print | Product List | Glossary On
Versions: 1 2 3 4 5 6 7 8 9 10 11 12 13 14 15 16 17 18 19 20 21 22 23 24 25 26 27 28 29 30 31 32 33 34 35 36 37 38 39 40 41 42 43 44 45 46 47 48 49 50
000
ASUS41 KAKQ 051215
RWRAKQ

REGIONAL WEATHER ROUNDUP
NATIONAL WEATHER SERVICE WAKEFIELD VA
800 AM EDT SUN JUL 05 2015

Note: "fair" indicates few or no clouds below 12,000 feet with no
significant weather and/or obstructions to visibility. * = Denotes
station may not report precipitation (e.g., rain,snow,etc.),
thunder or fog.

VAZ042-051-052>054-056-051300-
NORTHERN VIRGINIA

CITY           SKY/WX    TMP DP  RH WIND       PRES   REMARKS
WASH NATIONAL  CLOUDY    73  67  81 NE5       30.14R
DULLES         FOG       66  65  96 N6        30.14R VSB 1
FORT BELVOIR   MOSUNNY   70  69  96 MISG      30.13R FOG
QUANTICO       CLOUDY    72  67  84 NE9       30.13R HAZE
FREDERICKSBRG* CLOUDY    73  73 100 NE5       30.12R FOG
STAFFORD*      CLOUDY    70  68  95 NE6       30.17R FOG
WARRENTON      CLOUDY    68  68 100 NE5       30.13R FOG
CULPEPER*      CLOUDY    67  67 100 CALM      30.14R FOG
MANASSAS*      CLOUDY    70  70 100 NE5       30.14R FOG
LEESBURG*      CLOUDY    66  66 100 CALM      30.15R FOG
WINCHESTER     CLOUDY    68  66  94 CALM      30.15R FOG
FRONT ROYAL*   CLOUDY    66  66 100 NE3       30.14R VSB 3/4
LURAY*         FOG       70  70 100 CALM      30.15R VSB 1/2
$$

VAZ048-049-060>072-079>083-051300-
CENTRAL AND SOUTH CENTRAL VIRGINIA

CITY           SKY/WX    TMP DP  RH WIND       PRES   REMARKS
RICHMOND       FOG       70  69  97 E3        30.12R VSB 1
CHESTERFIELD*  NOT AVBL
PETERSBURG*    CLOUDY    72  72 100 NE5       30.12R FOG
HANOVER        FOG       69  69 100 MISG      30.14R VSB 1
TAPPAHANNOCK*  CLOUDY    72  70  93 CALM      30.12R FOG
QUINTON*       NOT AVBL
CHARLOTTSVILLE FOG       68  67  96 NE3       30.13R VSB 1/2
GORDONSVILLE*  FOG       68  68 100 CALM      30.13R VSB 1/2
ORANGE*        FOG       70  68  94 CALM      30.14R VSB 1/4
LOUISA*        CLOUDY    72  70  94 E5        30.12R FOG
BUMPASS*       CLOUDY    70  69  98 CALM      30.12R
FARMVILLE*     CLOUDY    71  71 100 CALM      30.11R FOG
CREWE*         CLOUDY    70  69  96 CALM      30.11R
FORT PICKETT*  CLOUDY    70  70  98 CALM      30.12R
CHASE CITY*    FAIR      77  74  92 CALM      30.12R
CLARKSVILLE*   FAIR      72  72 100 CALM      30.10S
SOUTH HILL*    MOSUNNY   73  70  91 CALM      30.17R
LAWRENCEVILLE* NOT AVBL
EMPORIA*         N/A     73  70  88 CALM      30.12R
$$

VAZ088>098-051300-
SOUTHEAST VIRGINIA

CITY           SKY/WX    TMP DP  RH WIND       PRES   REMARKS
NORFOLK        MOSUNNY   77  71  82 CALM      30.10R
VIRGINIA BEACH PTSUNNY   80  71  74 CALM      30.10R
NORFOLK NAVAL  PTSUNNY   76  72  87 NE3       30.12R
WEST POINT*    CLOUDY    73  70  93 CALM      30.13R VSB 3/4
SALUDA*        PTSUNNY   72  71  96 NW6       30.11R
NEWPORT NEWS   SUNNY     76  72  87 CALM      30.11R
LANGLEY AFB    SUNNY     75  72  91 N2        30.09R
FORT EUSTIS    SUNNY     73 N/A N/A N3        30.09R
WILLIAMSBURG*  PTSUNNY   75  75 100 CALM      30.12R
HR EXEC AP*    FAIR      73  70  88 CALM      30.12S
FRANKLIN*      MOSUNNY   74  71  91 CALM      30.11S
WAKEFIELD      MOSUNNY   76  71  85 CALM      30.11R
$$

VAZ020-022-025-037-045-051300-
WEST CENTRAL AND SOUTHWEST VIRGINIA

CITY           SKY/WX    TMP DP  RH WIND       PRES   REMARKS
STAUNTON*      FOG       69  67  94 CALM      30.18R VSB 1/4
WAYNESBORO*    CLOUDY    65  65  98 CALM      30.17R
HOT SPRINGS VA PTSUNNY   65  65 100 CALM      30.24R
LYNCHBURG      CLOUDY    70  68  93 NE6       30.15R
DANVILLE       PTSUNNY   72  69  90 NE3       30.11S
SOUTH BOSTON*  FAIR      71  70  95 MISG      30.12R
MARTINSVILLE   CLOUDY    71  71 100 CALM      30.15R
ROANOKE        CLOUDY    70  66  87 N3        30.16R
BLACKSBURG     CLOUDY    67  67 100 CALM      30.21R FOG
DUBLIN*        CLOUDY    67  67 100 CALM      30.18S FOG
MARION*        LGT RAIN  66  65  96 CALM      30.20S
HILLSVILLE*    CLOUDY    64  64  99 CALM      30.19R FOG
RICHLANDS*     LGT RAIN  65  65  99 CALM      30.17S
WISE*          RAIN      64  64 100 CALM      30.16S
ABINGDON*      CLOUDY    68  68 100 E6        30.14S
$$

MDZ021>025-VAZ099-100-051300-
SOUTHERN MARYLAND AND THE DELMARVA PENINSULA

CITY           SKY/WX    TMP DP  RH WIND       PRES   REMARKS
PATUXENT RIVER PTSUNNY   73  69  87 E6        30.12R
BAY BRIDGE APT   N/A     72  68  88 E5        30.12R
LEONARDTOWN    CLOUDY    70  70 100 CALM      30.13R
DOVER          MOSUNNY   72  68  87 SE5       30.11R
GEORGETOWN     CLOUDY    70  67  90 CALM      30.13R
EASTON         MOSUNNY   72  72 100 CALM        N/A
CAMBRIDGE      MOSUNNY   72  70  94 CALM      30.12R
SALISBURY      MOSUNNY   72  69  90 NE3       30.12R
OCEAN CITY     CLOUDY    73  69  87 E5        30.12R
WALLOPS ISLAND PTSUNNY   74  72  93 NE3       30.12R
ACCOMACK*      CLOUDY    72  72 100 CALM      30.12R
$$

NCZ012>017-030>032-051300-
NORTH CENTRAL AND EASTERN NORTH CAROLINA

CITY           SKY/WX    TMP DP  RH WIND       PRES   REMARKS
ROANOKE RAPIDS FAIR      73  70  88 CALM      30.11R
RALEIGH        MOSUNNY   75  68  78 SW8       30.12R
ELIZABETH CITY MOSUNNY   77  72  84 SW5       30.11R
AHOSKIE*       SUNNY    N/A N/A N/A CALM      30.11S
EDENTON*       MOSUNNY   77  72  85 W7        30.11R
CURRITUCK*     MOSUNNY   76  71  86 W3        30.11S
KILL DEVIL HLS MOSUNNY   77  72  84 CALM      30.10R
MANTEO         MOSUNNY   77  72  83 SW3       30.11S
CAPE HATTERAS  CLOUDY    76  74  93 SW9       30.13R
TARBORO*         N/A     77  72  84 W6        30.11S
GOLDSBORO      PTSUNNY   77  70  79 SW6       30.10R
WASHINGTON     CLOUDY    76  73  90 SW3       30.11S
GREENVILLE     PTSUNNY   77  73  88 W3        30.12S FOG
NEW BERN       PTSUNNY   77  70  79 SW6       30.14R
WILMINGTON     CLOUDY    77  68  73 SW7       30.14R
$$

VAZ048-051300-
ELSEWHERE

CITY           SKY/WX    TMP DP  RH WIND       PRES   REMARKS
HARRISBURG PA  FOG       64  63  96 NW3       30.13R VSB 1/4
BALTIMORE      PTSUNNY   69  66  90 CALM      30.13R FOG
ANNAPOLIS      SUNNY     71  67  87 CALM      30.12R FOG
ANDREWS AFB    MOSUNNY   68  68 100 NE6       30.13R
PHILADELPHIA   PTSUNNY   71  62  73 CALM      30.13R
HENDERSON NC   SUNNY     73  69  87 SW3       30.11S
GREENSBORO     PTSUNNY   73  70  90 SW7       30.11R
ROCKY MOUNT    PTSUNNY   75  72  90 S8        30.11R
$$

VAZ100-051300-
MARINE

STATION/POSITION TIME  TEMP    WIND        PRES    WAVE   SWELL
                       AIR SEA DIR/SP/G            HT/PER HT/PER
                 (UTC) (F)     (DEG/KT/KT) (MB)    (FT/S) (FT/S)
BRANDYWINE LGT   1100   71 73   70/  7/  9 1019.5R
CAPE MAY NJ      1100   69 76   40/  2/  5 1019.0R
LEWES DE         1100   71 73   80/  4/  5 1019.2R
15NM E FENWICK I 1150   72 73              1019.7R   4/ 7
OCEAN-CITY-INLET 1100   72 74   70/  3/  5 1019.1R
WACHAPREAGUE VA  1100   70 79   30/  4/  6 1019.4R
THOMAS POINT MD  1200   71 76   50/  5/  6 1020.6R
GOOSES REEF MD   1200   75 77   50/  4/  6 1021.0R
COVE POINT MD    1100   72     120/  6/  7 1019.9R
SOLOMONS ISLAND  1100      79                N/A
BISHOPS HEAD MD  1100   73      70/  4/  5 1019.1R
PINEY POINT MD   1100           70/  2/  3   N/A
CAMBRIDGE MD     1100   70 79  110/  3/  4 1019.4R
LEWISETTA VA     1100   73 79   30/  4/  5 1018.9R
RAPPAHANNOCK LGT 1100           90/  9/ 10 1019.5R
STINGRAY PT      1200   76 80   70/ 10/ 12 1019.6R
YORK RVR RNG VA  1100   75      40/  4/  6 1018.5R
YORKTOWN VA      1100   74 80   10/  2/  3 1018.8R
JAMESTOWN VA     1200   74 82   50/  4/  6   N/A
DOMINION TERM VA 1100   76      CALM  /  2 1018.8R
KIPTOPEKE VA     1100      81   30/  1/  2   N/A
CHES BAY BRIDGE  1100   77 78   CALM  /  2 1018.4R
CAPE HENRY VA    1100   76      CALM  /  1   N/A
CHESAPEAKE LGHT  1100   80     320/  1/  2 1019.5R
WILLOUBY STN VA  1100   76      CALM  /  1 1019.9R
CAPE HENRY BUOY  1128      77                N/A     2/ 7
1ST LANDING BUOY 1200      78              1019.1R   1/ 6
CAPE CHARLES BUO 1126      77                N/A     2/ 9   2/ 9
OFFSHORE WE BUOY 1111      77                N/A     3/ 7   3/ 7
64NM E OF VA BCH 1150   76 76  310/  4/  4 1019.0R   4/ 7   3/ 7
DUCK PIER NC     1100   78 74  270/  6/  8   N/A
44100 DUCK FRF   1124      78                N/A     2/ 6
44056 DUCK FRF   1111      77                N/A     2/14
OREGON INLET NC  1100   78 79  210/  4/  6 1019.3R
HATTERAS NC      1100   78 79  230/  8/ 11 1019.4R
DIAMOND SHLS NC  1150   80 81  230/ 17/ 21 1019.8R   4/ 6   2/ 8
CAPE LOOKOUT NC  1200   81     230/  7/ 12 1020.4R
$$


USA.gov is the U.S. government's official web portal to all federal, state and local government web resources and services.